Wetbulb
75.34 73.10 73.09 74.48 73.30 72.92 72.93 74.03 76.67 77.12 77.54 77.79 77.96 77.79 77.62 76.59 76.37 76.62 75.17 74.72 73.60 71.97
74.77 74.73 73.84 75.17 74.78 73.63 75.11 73.62 75.34 76.44 76.84 77.34 77.54 77.90 77.82 76.49 76.39 76.58 76.63 76.04 75.87 74.07
74.32 74.78 75.00 74.86 74.67 75.20 74.40 74.48 74.63 75.72 76.41 76.92 77.26 77.79 77.65 76.75 77.34 76.81 76.16 75.79 76.40 76.41
73.90 73.93 74.28 74.17 74.50 75.38 74.93 74.97 75.09 75.67 75.95 76.31 76.48 77.06 77.20 76.96 77.09 76.72 76.91 76.97 76.20 76.13
73.90 74.34 73.63 74.16 74.34 75.55 75.52 74.84 75.06 75.62 75.92 76.18 76.06 76.56 76.45 76.13 75.81 76.10 76.45 76.92 76.83 76.12
73.13 73.38 74.14 74.43 74.62 75.07 75.21 75.21 74.47 74.87 75.39 75.51 75.75 76.17 76.39 76.35 76.28 76.31 76.62 77.01 77.00 76.92
73.71 74.01 74.04 75.16 75.23 74.67 75.39 75.09 74.94 75.03 75.31 75.37 75.69 75.97 76.00 76.18 76.36 76.39 76.67 77.12 77.29 77.29
74.23 74.62 75.01 75.06 75.34 75.15 75.50 75.57 75.91 75.27 75.04 75.31 74.87 74.72 75.84 75.75 76.15 76.28 76.45 76.82 77.23 77.48
74.48 74.76 74.78 75.17 75.25 75.63 75.25 75.34 75.60 74.79 74.99 74.92 74.33 68.18 67.19 73.47 75.66 76.59 76.46 76.13 76.79 77.18
74.61 74.53 74.70 75.33 75.43 75.61 75.74 75.04 74.67 74.56 74.94 75.31 76.24 65.42 65.05 67.55 75.11 75.95 76.70 76.92 76.62 76.37
74.60 74.37 74.86 75.05 74.87 75.22 75.42 75.98 75.70 75.47 75.92 75.58 76.00 65.10 63.44 65.47 73.95 75.90 76.84 77.12 77.29 77.50
74.44 74.53 74.90 74.69 74.97 75.34 74.69 74.64 74.82 75.14 75.44 75.53 76.20 63.33 62.57 65.61 74.07 74.87 76.23 76.93 77.60 77.54
74.61 74.62 74.59 75.18 75.63 76.17 75.82 74.87 74.78 74.53 75.57 71.84 76.20 65.27 60.61 64.36 73.70 74.53 74.06 76.63 77.50 67.55
75.35 75.44 75.74 76.04 76.42 75.85 75.58 75.97 75.84 75.44 76.21 76.00 74.44 74.88 60.15 58.75 73.63 74.09 74.46 74.43 74.82 75.96
MSLP
1015.84 1016.20 1016.63 1017.11 1017.31 1017.68 1017.95 1018.20 1018.38 1018.86 1019.13 1019.41 1019.68 1019.88 1020.20 1020.34 1020.55 1020.75 1021.14 1021.47 1021.65 1021.60
1015.16 1015.61 1015.89 1016.27 1016.84 1017.17 1017.56 1017.83 1018.11 1018.22 1018.59 1018.87 1019.20 1019.48 1019.77 1020.08 1020.28 1020.51 1020.87 1021.12 1021.38 1021.49
1014.23 1014.87 1015.23 1015.78 1016.16 1016.48 1016.93 1017.37 1017.62 1017.89 1018.16 1018.38 1018.66 1019.03 1019.45 1019.69 1019.96 1020.29 1020.53 1020.71 1020.98 1021.14
1013.29 1014.06 1014.76 1015.13 1015.53 1015.89 1016.34 1016.87 1017.23 1017.47 1017.72 1018.02 1018.30 1018.58 1019.02 1019.26 1019.52 1019.85 1020.04 1020.33 1020.60 1020.68
1012.42 1013.12 1013.78 1014.27 1014.68 1015.22 1015.57 1016.14 1016.62 1016.98 1017.25 1017.56 1017.83 1018.13 1018.53 1018.73 1018.88 1019.23 1019.34 1019.54 1019.90 1020.00
1011.33 1012.12 1012.69 1013.29 1013.84 1014.44 1014.90 1015.32 1015.86 1016.32 1016.64 1016.94 1017.26 1017.63 1018.02 1018.23 1018.40 1018.56 1018.65 1018.80 1019.05 1019.18
1010.02 1010.70 1011.49 1012.31 1013.00 1013.56 1014.07 1014.55 1015.02 1015.41 1015.83 1016.26 1016.63 1016.97 1017.35 1017.61 1017.79 1017.86 1017.88 1018.09 1018.28 1018.51
1008.83 1009.70 1010.58 1011.45 1012.10 1012.63 1013.21 1013.65 1014.09 1014.66 1015.12 1015.54 1015.99 1016.14 1016.51 1016.83 1017.00 1017.16 1017.23 1017.34 1017.48 1017.68
1007.97 1008.84 1009.62 1010.44 1011.19 1011.86 1012.36 1012.88 1013.43 1013.87 1014.27 1014.68 1014.99 1015.17 1015.60 1016.00 1016.19 1016.36 1016.46 1016.53 1016.67 1016.91
1007.10 1007.95 1008.71 1009.48 1010.24 1010.81 1011.37 1012.09 1012.60 1013.10 1013.49 1013.74 1014.04 1014.34 1014.77 1015.16 1015.44 1015.41 1015.50 1015.69 1015.87 1016.01
1006.30 1007.13 1007.90 1008.64 1009.28 1009.92 1010.62 1011.06 1011.62 1012.16 1012.52 1012.91 1013.05 1013.49 1013.94 1014.34 1014.84 1014.74 1014.62 1014.70 1014.86 1015.08
1005.41 1006.24 1007.04 1007.64 1008.25 1008.88 1009.64 1010.24 1010.60 1011.10 1011.59 1011.87 1012.02 1012.48 1013.08 1013.82 1014.03 1013.80 1013.62 1013.70 1013.85 1014.09
1004.68 1005.34 1005.97 1006.67 1007.30 1007.91 1008.59 1009.04 1009.66 1010.00 1010.40 1010.73 1010.93 1011.44 1011.95 1012.77 1012.94 1012.59 1012.52 1012.67 1012.77 1013.10
1003.90 1004.59 1005.14 1005.82 1006.48 1007.17 1007.82 1008.25 1008.77 1009.04 1009.29 1009.68 1010.12 1010.44 1010.91 1011.57 1011.90 1011.50 1011.43 1011.39 1011.42 1011.72
Wind_Speed
16 12 13 12 11 10 10 9 9 11 10 10 9 7 6 5 6 6 6 6 5 4
15 15 13 14 13 10 9 9 11 11 11 11 10 9 8 7 7 7 6 6 6 5
16 16 15 13 13 12 11 11 11 12 11 10 10 10 10 8 8 8 7 7 7 7
16 17 15 14 14 13 12 12 12 12 11 11 11 10 10 11 10 10 10 9 8 9
17 16 17 16 16 14 14 13 13 13 12 11 11 10 11 12 11 12 12 12 11 11
19 18 17 17 16 15 15 14 14 14 14 13 12 12 12 12 12 13 13 13 12 12
19 19 18 16 16 16 15 15 15 15 14 14 14 13 13 12 13 13 13 13 13 13
19 18 17 16 16 16 15 15 15 15 15 15 14 13 15 15 14 14 14 13 13 13
18 18 18 17 16 15 15 15 14 16 16 16 13 15 15 15 14 15 14 14 14 14
18 18 18 17 16 16 16 15 16 16 16 16 16 14 17 18 16 14 14 14 14 14
18 18 17 16 17 16 14 15 15 15 16 15 15 14 17 17 18 15 16 16 16 15
18 18 17 18 17 15 15 14 16 15 16 17 16 16 17 14 16 17 18 16 17 16
18 18 18 17 16 15 14 15 13 16 16 17 17 15 18 17 13 15 14 15 16 15
17 16 16 15 13 14 14 13 14 14 14 16 17 16 17 19 16 14 13 13 13 13
Wind_Direction
205 209 215 212 215 218 224 216 201 198 205 209 215 215 206 216 231 223 219 219 222 219
205 210 211 213 209 218 218 222 217 208 206 210 213 217 214 226 224 224 223 226 227 235
204 206 209 207 209 209 212 213 211 213 210 211 215 216 217 226 227 225 220 230 230 233
206 206 209 209 211 207 203 203 208 212 212 215 219 218 219 231 234 230 232 228 227 235
202 203 206 208 208 205 202 200 208 213 215 214 218 221 221 230 233 230 235 235 230 233
201 202 207 207 208 205 205 204 207 213 217 217 219 220 221 230 232 231 234 236 234 238
198 201 205 205 205 205 203 204 208 210 215 217 219 221 221 225 230 234 236 238 239 241
197 200 202 201 203 203 204 207 208 211 217 218 222 224 222 224 228 231 237 239 242 240
191 194 199 200 201 201 204 208 209 212 217 219 221 219 208 218 224 230 235 240 243 247
189 193 197 199 198 201 204 205 211 214 215 220 222 210 206 209 230 234 236 239 243 248
189 193 194 195 199 201 202 207 208 214 215 219 226 208 209 207 227 239 241 241 240 241
189 190 192 197 198 198 200 206 212 216 217 219 229 204 207 197 228 238 241 242 241 239
188 191 194 197 199 198 201 210 211 217 219 222 230 209 205 199 228 234 239 240 242 229
188 192 194 196 198 198 203 212 213 220 220 222 224 231 201 197 220 233 235 241 244 243